Regional Weather Roundup
Issued by NWS

Home | Current Version | Previous Version | Text Only | Print | Product List | Glossary Off
Versions: 1 2 3 4 5 6 7 8 9 10 11 12 13 14 15 16 17 18 19 20 21 22 23 24 25 26 27 28 29 30 31 32 33 34 35 36 37 38 39 40 41 42 43 44 45 46 47 48 49 50

000
ASUS43 KOAX 281410
RWRNE

WEATHER ROUNDUP FOR NEBRASKA
NATIONAL WEATHER SERVICE OMAHA NE
900 AM CDT MON JUL 28 2014

NOTES: SATELLITE DATA IS BEING USED TO AUGMENT CLOUD COVER ABOVE
       12000 FEET.
       "FAIR" INDICATES FEW OR NO CLOUDS BELOW 12,000 FEET WITH NO
       SIGNIFICANT WEATHER AND/OR OBSTRUCTIONS TO VISIBILITY.

  * THESE STATIONS DO NOT REPORT WEATHER SUCH AS RAIN...SNOW OR FOG.

NEZ001>004-019>022-054>056-281500-
NEBRASKA PANHANDLE

CITY           SKY/WX    TMP DP  RH WIND       PRES   REMARKS
SCOTTSBLUFF    SUNNY     64  51  62 E12       30.35R
ALLIANCE       SUNNY     66  51  58 E18       30.35S
CHADRON        MOSUNNY   64  53  67 NE5       30.34S
KIMBALL        SUNNY     67  52  57 S7        30.34R
SIDNEY         SUNNY     68  49  50 SE8       30.35R
$$

NEZ057>060-069>072-079>082-281500-
SOUTHWEST NEBRASKA

CITY           SKY/WX    TMP DP  RH WIND       PRES   REMARKS
NORTH PLATTE   SUNNY     63  56  78 E12       30.35S
IMPERIAL       SUNNY     66  56  70 SE13      30.34R
LEXINGTON      SUNNY     63  57  79 E5        30.35R
MCCOOK         MOSUNNY   64  57  78 E10       30.34R
OGALLALA       SUNNY     61  54  76 E10       30.34S
$$

NEZ005>010-023>029-035>040-094-281500-
NORTH CENTRAL NEBRASKA

CITY           SKY/WX    TMP DP  RH WIND       PRES   REMARKS
VALENTINE      SUNNY     63  52  67 E5        30.36S
AINSWORTH      SUNNY     60  54  79 CALM      30.36S
BROKEN BOW     SUNNY     64  55  72 NE6       30.34S
O`NEILL        SUNNY     62  54  76 NW10      30.34F
ORD            SUNNY     62  55  77 N6        30.32F
THEDFORD       SUNNY     62  56  79 E6        30.35S
$$

NEZ041-046>049-061>064-073>077-083>087-281500-
SOUTH CENTRAL NEBRASKA

CITY           SKY/WX    TMP DP  RH WIND       PRES   REMARKS
GRAND ISLAND   SUNNY     65  55  70 N8        30.33R
AURORA         SUNNY     64  59  82 N6        30.32R
HASTINGS       SUNNY     65  55  70 N9        30.33R
HEBRON         SUNNY     65  55  70 N9        30.30R
HOLDREGE       SUNNY     64  55  75 E8        30.35R
KEARNEY *      SUNNY     63  55  77 N8        30.34R
YORK           SUNNY     63  59  88 N9        30.31S
$$

NEZ011>018-030>034-042>045-281500-
NORTHEAST NEBRASKA

CITY           SKY/WX    TMP DP  RH WIND       PRES   REMARKS
NORFOLK        SUNNY     64  55  72 N9        30.29S
ALBION         SUNNY     61  55  82 NW9       30.32S
BLAIR          CLOUDY    62  55  76 N8        30.26S
COLUMBUS *     SUNNY     63  55  77 N8        30.31R
FREMONT        SUNNY     66  59  77 NW7       30.28S
WAYNE          MOSUNNY   63  58  84 NW8       30.29S
$$

NEZ050>053-065>068-078-088>093-281500-
SOUTHEAST NEBRASKA

CITY           SKY/WX    TMP DP  RH WIND       PRES   REMARKS
LINCOLN        MOSUNNY   68  55  63 N10       30.30R
OMAHA EPPLEY   CLOUDY    64  56  75 N10       30.26R
BEATRICE       SUNNY     64  58  79 N9        30.28R
FALLS CITY     SUNNY     66  58  75 N8        30.24R
NEBRASKA CITY  SUNNY     64  57  78 N9        30.26R
PLATTSMOUTH    CLOUDY    64  57  80 NW8       30.26R
$$

NEZ044-045-051>053-067-281500-
OMAHA AREA

CITY           SKY/WX    TMP DP  RH WIND       PRES   REMARKS
OMAHA EPPLEY   CLOUDY    64  56  75 N10       30.26R
BLAIR          CLOUDY    62  55  76 N8        30.26S
FREMONT        SUNNY     66  59  77 NW7       30.28S
MILLARD        CLOUDY    65  56  71 N3        30.26R
OFFUTT AFB     CLOUDY    65  59  81 N8        30.25S
PLATTSMOUTH    CLOUDY    64  57  80 NW8       30.26R
WAHOO          FAIR      65  57  76 N8        30.28S
$$



USA.gov is the U.S. government's official web portal to all federal, state and local government web resources and services.